Location: Hains Lake
(37.8540°N, 99.8578°W)
Time: 04:59:07
(UTC+00:00)

Vanguard 2 Rocket - Pass Details

Date: 21 April 2021
Orbit: 553 x 3326 km, 32.9° (Epoch: 07 May)

Event Time Altitude Azimuth Distance (km) Brightness Sun altitude
Rises 17:33:47 0° 211° (SSW) 5,538 11.1 60.5°
Reaches altitude 10° 17:37:21 10° 203° (SSW) 4,883 11.0 60.9°
Maximum altitude 17:50:51 39° 141° (SE) 3,976 11.6 62.2°
Drops below altitude 10° 18:08:17 10° 83° (E) 6,283 11.4 63.4°
Sets 18:13:36 0° 76° (ENE) 7,236 11.5 63.7°
